Overview Statistics Trail Chart Weather Telemetry Raw packets
 

This is the latest recevied weather packets stored in our database for station/object K1AWR. If no packets are shown the sender has not sent any weather packets the latest 10 day(s).

<< 4 5 6 7 8 9 10 >>
Time Temp. Humidity Pressure Rain* Wind** Luminosity Snow
1788578974 21.11° C 72% 1010.6 hPa 0 mm - 0 W/m² -
1788578670 21.11° C 72% 1010.7 hPa 0 mm - 0 W/m² -
1788578364 21.11° C 71% 1010.7 hPa 0 mm - 0 W/m² -
1788578060 21.67° C 70% 1010.4 hPa 0 mm - 0 W/m² -
1788577755 21.67° C 69% 1010.5 hPa 0 mm - 0 W/m² -
1788577451 21.67° C 68% 1010.3 hPa 0 mm - 0 W/m² -
1788577149 21.67° C 68% 1010.6 hPa 0 mm - 0 W/m² -
1788576845 21.67° C 68% 1010.5 hPa 0 mm - 0 W/m² -
1788576542 21.67° C 69% 1010.6 hPa 0 mm - 0 W/m² -
1788576236 21.11° C 74% 1010.5 hPa 0 mm - 0 W/m² -
1788575932 20.56° C 74% 1010.5 hPa 0 mm - 0 W/m² -
1788575627 20.56° C 75% 1010.5 hPa 0 mm - 0 W/m² -
1788575326 21.11° C 74% 1010.8 hPa 0 mm - 0 W/m² -
1788575022 21.11° C 73% 1010.5 hPa 0 mm - 0 W/m² -
1788574722 21.11° C 73% 1010.4 hPa 0 mm - 0 W/m² -
1788574417 21.67° C 72% 1010.5 hPa 0 mm - 0 W/m² -
1788574112 21.67° C 71% 1010.6 hPa 0 mm - 0 W/m² -
1788573807 22.22° C 71% 1010.3 hPa 0 mm - 0 W/m² -
1788573506 22.22° C 67% 1010.5 hPa 0 mm - 0 W/m² -
1788573205 22.78° C 66% 1010.5 hPa 0 mm - 0 W/m² -
1788572905 22.78° C 68% 1010.5 hPa 0 mm - 0 W/m² -
1788572600 23.33° C 65% 1010.5 hPa 0 mm - 0 W/m² -
1788572295 23.33° C 64% 1010.7 hPa 0 mm - 0 W/m² -
1788571992 23.33° C 65% 1010.7 hPa 0 mm - 0 W/m² -
1788571687 23.33° C 65% 1010.7 hPa 0 mm - 0 W/m² -

* Rain latest hour (hover to see other rain measurements)
** Current wind speed in m/s (hover to see current wind gust speed)